Year,Month,Day,Hour,Minute,Value (Times are PST for temperature in C)
2019,05,28,00,00,16.70
2019,05,28,00,01,16.70
2019,05,28,00,02,16.70
2019,05,28,00,03,16.60
2019,05,28,00,04,16.60
2019,05,28,00,05,16.60
2019,05,28,00,06,16.50
2019,05,28,00,07,16.50
2019,05,28,00,08,16.40
2019,05,28,00,09,16.40
2019,05,28,00,10,16.40
2019,05,28,00,11,16.40
2019,05,28,00,12,16.30
2019,05,28,00,13,16.30
2019,05,28,00,14,16.30
2019,05,28,00,15,16.30
2019,05,28,00,16,16.30
2019,05,28,00,17,16.30
2019,05,28,00,18,16.30
2019,05,28,00,19,16.30
2019,05,28,00,20,16.30
2019,05,28,00,21,16.30
2019,05,28,00,22,16.30
2019,05,28,00,23,16.30
2019,05,28,00,24,16.30
2019,05,28,00,25,16.30
2019,05,28,00,26,16.30
2019,05,28,00,27,16.30
2019,05,28,00,28,16.30
2019,05,28,00,29,16.30
2019,05,28,00,30,16.30
2019,05,28,00,31,16.30
2019,05,28,00,32,16.30
2019,05,28,00,33,16.30
2019,05,28,00,34,16.20
2019,05,28,00,35,16.20
2019,05,28,00,36,16.20
2019,05,28,00,37,16.20
2019,05,28,00,38,16.20
2019,05,28,00,39,16.20
2019,05,28,00,40,16.10
2019,05,28,00,41,16.10
2019,05,28,00,42,16.10
2019,05,28,00,43,16.10
2019,05,28,00,44,16.00
2019,05,28,00,45,16.00
2019,05,28,00,46,16.00
2019,05,28,00,47,15.90
2019,05,28,00,48,15.90
2019,05,28,00,49,15.90
2019,05,28,00,50,15.90
2019,05,28,00,51,15.90
2019,05,28,00,52,15.80
2019,05,28,00,53,15.80
2019,05,28,00,54,15.80
2019,05,28,00,55,15.80
2019,05,28,00,56,15.80
2019,05,28,00,57,15.70
2019,05,28,00,58,15.70
2019,05,28,00,59,15.70
2019,05,28,01,00,15.70
2019,05,28,01,01,15.70
2019,05,28,01,02,15.60
2019,05,28,01,03,15.60
2019,05,28,01,04,15.60
2019,05,28,01,05,15.50
2019,05,28,01,06,15.50
2019,05,28,01,07,15.50
2019,05,28,01,08,15.50
2019,05,28,01,09,15.40
2019,05,28,01,10,15.40
2019,05,28,01,11,15.40
2019,05,28,01,12,15.40
2019,05,28,01,13,15.40
2019,05,28,01,14,15.40
2019,05,28,01,15,15.30
2019,05,28,01,16,15.30
2019,05,28,01,17,15.30
2019,05,28,01,18,15.30
2019,05,28,01,19,15.30
2019,05,28,01,20,15.20
2019,05,28,01,21,15.20
2019,05,28,01,22,15.20
2019,05,28,01,23,15.20
2019,05,28,01,24,15.20
2019,05,28,01,25,15.10
2019,05,28,01,26,15.10
2019,05,28,01,27,15.00
2019,05,28,01,28,15.00
2019,05,28,01,29,15.00
2019,05,28,01,30,15.00
2019,05,28,01,31,15.00
2019,05,28,01,32,15.00
2019,05,28,01,33,15.00
2019,05,28,01,34,15.00
2019,05,28,01,35,15.00
2019,05,28,01,36,15.00
2019,05,28,01,37,15.00
2019,05,28,01,38,14.90
2019,05,28,01,39,14.90
2019,05,28,01,40,14.80
2019,05,28,01,41,14.80
2019,05,28,01,42,14.80
2019,05,28,01,43,14.80
2019,05,28,01,44,14.70
2019,05,28,01,45,14.70
2019,05,28,01,46,14.70
2019,05,28,01,47,14.60
2019,05,28,01,48,14.60
2019,05,28,01,49,14.60
2019,05,28,01,50,14.50
2019,05,28,01,51,14.50
2019,05,28,01,52,14.50
2019,05,28,01,53,14.50
2019,05,28,01,54,14.40
2019,05,28,01,55,14.40
2019,05,28,01,56,14.40
2019,05,28,01,57,14.40
2019,05,28,01,58,14.40
2019,05,28,01,59,14.40
2019,05,28,02,00,14.40
2019,05,28,02,01,14.40
2019,05,28,02,02,14.40
2019,05,28,02,03,14.40
2019,05,28,02,04,14.30
2019,05,28,02,05,14.30
2019,05,28,02,06,14.30
2019,05,28,02,07,14.30
2019,05,28,02,08,14.30
2019,05,28,02,09,14.30
2019,05,28,02,10,14.20
2019,05,28,02,11,14.20
2019,05,28,02,12,14.20
2019,05,28,02,13,14.20
2019,05,28,02,14,14.20
2019,05,28,02,15,14.20
2019,05,28,02,16,14.20
2019,05,28,02,17,14.20
2019,05,28,02,18,14.10
2019,05,28,02,19,14.10
2019,05,28,02,20,14.10
2019,05,28,02,21,14.10
2019,05,28,02,22,14.10
2019,05,28,02,23,14.00
2019,05,28,02,24,14.00
2019,05,28,02,25,13.90
2019,05,28,02,26,13.90
2019,05,28,02,27,13.80
2019,05,28,02,28,13.80
2019,05,28,02,29,13.80
2019,05,28,02,30,13.70
2019,05,28,02,31,13.70
2019,05,28,02,32,13.70
2019,05,28,02,33,13.60
2019,05,28,02,34,13.60
2019,05,28,02,35,13.50
2019,05,28,02,36,13.50
2019,05,28,02,37,13.40
2019,05,28,02,38,13.40
2019,05,28,02,39,13.40
2019,05,28,02,40,13.40
2019,05,28,02,41,13.40
2019,05,28,02,42,13.40
2019,05,28,02,43,13.40
2019,05,28,02,44,13.40
2019,05,28,02,45,13.40
2019,05,28,02,46,13.40
2019,05,28,02,47,13.40
2019,05,28,02,48,13.30
2019,05,28,02,49,13.30
2019,05,28,02,50,13.30
2019,05,28,02,51,13.30
2019,05,28,02,52,13.30
2019,05,28,02,53,13.30
2019,05,28,02,54,13.30
2019,05,28,02,55,13.30
2019,05,28,02,56,13.30
2019,05,28,02,57,13.30
2019,05,28,02,58,13.30
2019,05,28,02,59,13.20
2019,05,28,03,00,13.20
2019,05,28,03,01,13.20
2019,05,28,03,02,13.20
2019,05,28,03,03,13.20
2019,05,28,03,04,13.20
2019,05,28,03,05,13.20
2019,05,28,03,06,13.10
2019,05,28,03,07,13.10
2019,05,28,03,08,13.10
2019,05,28,03,09,13.10
2019,05,28,03,10,13.10
2019,05,28,03,11,13.10
2019,05,28,03,12,13.10
2019,05,28,03,13,13.10
2019,05,28,03,14,13.10
2019,05,28,03,15,13.10
2019,05,28,03,16,13.00
2019,05,28,03,17,13.00
2019,05,28,03,18,13.00
2019,05,28,03,19,13.00
2019,05,28,03,20,12.90
2019,05,28,03,21,12.90
2019,05,28,03,22,12.90
2019,05,28,03,23,12.90
2019,05,28,03,24,12.90
2019,05,28,03,25,12.80
2019,05,28,03,26,12.80
2019,05,28,03,27,12.80
2019,05,28,03,28,12.80
2019,05,28,03,29,12.80
2019,05,28,03,30,12.80
2019,05,28,03,31,12.80
2019,05,28,03,32,12.70
2019,05,28,03,33,12.70
2019,05,28,03,34,12.70
2019,05,28,03,35,12.70
2019,05,28,03,36,12.70
2019,05,28,03,37,12.70
2019,05,28,03,38,12.70
2019,05,28,03,39,12.70
2019,05,28,03,40,12.70
2019,05,28,03,41,12.60
2019,05,28,03,42,12.60
2019,05,28,03,43,12.60
2019,05,28,03,44,12.60
2019,05,28,03,45,12.60
2019,05,28,03,46,12.60
2019,05,28,03,47,12.50
2019,05,28,03,48,12.50
2019,05,28,03,49,12.50
2019,05,28,03,50,12.50
2019,05,28,03,51,12.40
2019,05,28,03,52,12.40
2019,05,28,03,53,12.40
2019,05,28,03,54,12.40
2019,05,28,03,55,12.40
2019,05,28,03,56,12.40
2019,05,28,03,57,12.40
2019,05,28,03,58,12.40
2019,05,28,03,59,12.40
2019,05,28,04,00,12.40
2019,05,28,04,01,12.40
2019,05,28,04,02,12.40
2019,05,28,04,03,12.40
2019,05,28,04,04,12.40
2019,05,28,04,05,12.40
2019,05,28,04,06,12.40
2019,05,28,04,07,12.40
2019,05,28,04,08,12.40
2019,05,28,04,09,12.40
2019,05,28,04,10,12.40
2019,05,28,04,11,12.40
2019,05,28,04,12,12.40
2019,05,28,04,13,12.40
2019,05,28,04,14,12.40
2019,05,28,04,15,12.50
2019,05,28,04,16,12.50
2019,05,28,04,17,12.50
2019,05,28,04,18,12.50
2019,05,28,04,19,12.50
2019,05,28,04,20,12.50
2019,05,28,04,21,12.50
2019,05,28,04,22,12.50
2019,05,28,04,23,12.50
2019,05,28,04,24,12.40
2019,05,28,04,25,12.40
2019,05,28,04,26,12.40
2019,05,28,04,27,12.40
2019,05,28,04,28,12.40
2019,05,28,04,29,12.40
2019,05,28,04,30,12.30
2019,05,28,04,31,12.30
2019,05,28,04,32,12.30
2019,05,28,04,33,12.30
2019,05,28,04,34,12.30
2019,05,28,04,35,12.20
2019,05,28,04,36,12.20
2019,05,28,04,37,12.10
2019,05,28,04,38,12.10
2019,05,28,04,39,12.00
2019,05,28,04,40,12.00
2019,05,28,04,41,11.90
2019,05,28,04,42,11.90
2019,05,28,04,43,11.90
2019,05,28,04,44,11.80
2019,05,28,04,45,11.80
2019,05,28,04,46,11.80
2019,05,28,04,47,11.80
2019,05,28,04,48,11.80
2019,05,28,04,49,11.80
2019,05,28,04,50,11.80
2019,05,28,04,51,11.80
2019,05,28,04,52,11.70
2019,05,28,04,53,11.70
2019,05,28,04,54,11.70
2019,05,28,04,55,11.60
2019,05,28,04,56,11.60
2019,05,28,04,57,11.60
2019,05,28,04,58,11.50
2019,05,28,04,59,11.50
2019,05,28,05,00,11.50
2019,05,28,05,01,11.40
2019,05,28,05,02,11.40
2019,05,28,05,03,11.40
2019,05,28,05,04,11.40
2019,05,28,05,05,11.40
2019,05,28,05,06,11.40
2019,05,28,05,07,11.30
2019,05,28,05,08,11.30
2019,05,28,05,09,11.30
2019,05,28,05,10,11.30
2019,05,28,05,11,11.30
2019,05,28,05,12,11.30
2019,05,28,05,13,11.30
2019,05,28,05,14,11.30
2019,05,28,05,15,11.30
2019,05,28,05,16,11.30
2019,05,28,05,17,11.30
2019,05,28,05,18,11.30
2019,05,28,05,19,11.30
2019,05,28,05,20,11.30
2019,05,28,05,21,11.30
2019,05,28,05,22,11.30
2019,05,28,05,23,11.30
2019,05,28,05,24,11.30
2019,05,28,05,25,11.30
2019,05,28,05,26,11.20
2019,05,28,05,27,11.20
2019,05,28,05,28,11.20
2019,05,28,05,29,11.20
2019,05,28,05,30,11.20
2019,05,28,05,31,11.20
2019,05,28,05,32,11.20
2019,05,28,05,33,11.20
2019,05,28,05,34,11.20
2019,05,28,05,35,11.20
2019,05,28,05,36,11.20
2019,05,28,05,37,11.10
2019,05,28,05,38,11.10
2019,05,28,05,39,11.10
2019,05,28,05,40,11.20
2019,05,28,05,41,11.20
2019,05,28,05,42,11.20
2019,05,28,05,43,11.20
2019,05,28,05,44,11.20
2019,05,28,05,45,11.20
2019,05,28,05,46,11.20
2019,05,28,05,47,11.20
2019,05,28,05,48,11.10
2019,05,28,05,49,11.10
2019,05,28,05,50,11.10
2019,05,28,05,51,11.10
2019,05,28,05,52,11.10
2019,05,28,05,53,11.10
2019,05,28,05,54,11.10
2019,05,28,05,55,11.10
2019,05,28,05,56,11.00
2019,05,28,05,57,11.00
2019,05,28,05,58,11.00
2019,05,28,05,59,11.00
2019,05,28,06,00,11.00
2019,05,28,06,01,10.90
2019,05,28,06,02,10.90
2019,05,28,06,03,10.90
2019,05,28,06,04,10.90
2019,05,28,06,05,10.90
2019,05,28,06,06,10.90
2019,05,28,06,07,10.90
2019,05,28,06,08,10.90
2019,05,28,06,09,10.90
2019,05,28,06,10,10.90
2019,05,28,06,11,10.90
2019,05,28,06,12,10.90
2019,05,28,06,13,10.80
2019,05,28,06,14,10.80
2019,05,28,06,15,10.80
2019,05,28,06,16,10.80
2019,05,28,06,17,10.80
2019,05,28,06,18,10.80
2019,05,28,06,19,10.80
2019,05,28,06,20,10.80
2019,05,28,06,21,10.80
2019,05,28,06,22,10.80
2019,05,28,06,23,10.80
2019,05,28,06,24,10.80
2019,05,28,06,25,10.80
2019,05,28,06,26,10.90
2019,05,28,06,27,10.90
2019,05,28,06,28,10.90
2019,05,28,06,29,11.00
2019,05,28,06,30,11.00
2019,05,28,06,31,11.10
2019,05,28,06,32,11.10
2019,05,28,06,33,11.10
2019,05,28,06,34,11.20
2019,05,28,06,35,11.20
2019,05,28,06,36,11.20
2019,05,28,06,37,11.20
2019,05,28,06,38,11.30
2019,05,28,06,39,11.30
2019,05,28,06,40,11.30
2019,05,28,06,41,11.30
2019,05,28,06,42,11.30
2019,05,28,06,43,11.30
2019,05,28,06,44,11.30
2019,05,28,06,45,11.30
2019,05,28,06,46,11.30
2019,05,28,06,47,11.40
2019,05,28,06,48,11.40
2019,05,28,06,49,11.40
2019,05,28,06,50,11.40
2019,05,28,06,51,11.40
2019,05,28,06,52,11.40
2019,05,28,06,53,11.40
2019,05,28,06,54,11.40
2019,05,28,06,55,11.40
2019,05,28,06,56,11.40
2019,05,28,06,57,11.40
2019,05,28,06,58,11.40
2019,05,28,06,59,11.40
2019,05,28,07,00,11.40
2019,05,28,07,01,11.40
2019,05,28,07,02,11.40
2019,05,28,07,03,11.40
2019,05,28,07,04,11.30
2019,05,28,07,05,11.40
2019,05,28,07,06,11.40
2019,05,28,07,07,11.40
2019,05,28,07,08,11.40
2019,05,28,07,09,11.40
2019,05,28,07,10,11.40
2019,05,28,07,11,11.40
2019,05,28,07,12,11.40
2019,05,28,07,13,11.40
2019,05,28,07,14,11.40
2019,05,28,07,15,11.40
2019,05,28,07,16,11.40
2019,05,28,07,17,11.40
2019,05,28,07,18,11.40
2019,05,28,07,19,11.40
2019,05,28,07,20,11.40
2019,05,28,07,21,11.40
2019,05,28,07,22,11.40
2019,05,28,07,23,11.40
2019,05,28,07,24,11.40
2019,05,28,07,25,11.40
2019,05,28,07,26,11.40
2019,05,28,07,27,11.40
2019,05,28,07,28,11.40
2019,05,28,07,29,11.40
2019,05,28,07,30,11.40
2019,05,28,07,31,11.50
2019,05,28,07,32,11.50
2019,05,28,07,33,11.50
2019,05,28,07,34,11.50
2019,05,28,07,35,11.50
2019,05,28,07,36,11.60
2019,05,28,07,37,11.60
2019,05,28,07,38,11.60
2019,05,28,07,39,11.60
2019,05,28,07,40,11.60
2019,05,28,07,41,11.60
2019,05,28,07,42,11.60
2019,05,28,07,43,11.60
2019,05,28,07,44,11.60
2019,05,28,07,45,11.60
2019,05,28,07,46,11.60
2019,05,28,07,47,11.60
2019,05,28,07,48,11.70
2019,05,28,07,49,11.70
2019,05,28,07,50,11.70
2019,05,28,07,51,11.70
2019,05,28,07,52,11.70
2019,05,28,07,53,11.80
2019,05,28,07,54,11.80
2019,05,28,07,55,11.80
2019,05,28,07,56,11.80
2019,05,28,07,57,11.80
2019,05,28,07,58,11.80
2019,05,28,07,59,11.90
2019,05,28,08,00,11.90
2019,05,28,08,01,11.90
2019,05,28,08,02,11.90
2019,05,28,08,03,11.90
2019,05,28,08,04,11.90
2019,05,28,08,05,12.00
2019,05,28,08,06,12.00
2019,05,28,08,07,12.00
2019,05,28,08,08,12.00
2019,05,28,08,09,12.10
2019,05,28,08,10,12.10
2019,05,28,08,11,12.10
2019,05,28,08,12,12.10
2019,05,28,08,13,12.20
2019,05,28,08,14,12.20
2019,05,28,08,15,12.20
2019,05,28,08,16,12.20
2019,05,28,08,17,12.30
2019,05,28,08,18,12.30
2019,05,28,08,19,12.30
2019,05,28,08,20,12.30
2019,05,28,08,21,12.40
2019,05,28,08,22,12.40
2019,05,28,08,23,12.40
2019,05,28,08,24,12.40
2019,05,28,08,25,12.50
2019,05,28,08,26,12.50
2019,05,28,08,27,12.60
2019,05,28,08,28,12.60
2019,05,28,08,29,12.70
2019,05,28,08,30,12.70
2019,05,28,08,31,12.80
2019,05,28,08,32,12.90
2019,05,28,08,33,12.90
2019,05,28,08,34,13.00
2019,05,28,08,35,13.00
2019,05,28,08,36,13.10
2019,05,28,08,37,13.10
2019,05,28,08,38,13.20
2019,05,28,08,39,13.20
2019,05,28,08,40,13.30
2019,05,28,08,41,13.30
2019,05,28,08,42,13.30
2019,05,28,08,43,13.40
2019,05,28,08,44,13.40
2019,05,28,08,45,13.50
2019,05,28,08,46,13.50
2019,05,28,08,47,13.60
2019,05,28,08,48,13.60
2019,05,28,08,49,13.70
2019,05,28,08,50,13.70
2019,05,28,08,51,13.70
2019,05,28,08,52,13.70
2019,05,28,08,53,13.80
2019,05,28,08,54,13.80
2019,05,28,08,55,13.90
2019,05,28,08,56,13.90
2019,05,28,08,57,13.90
2019,05,28,08,58,14.00
2019,05,28,08,59,14.00
2019,05,28,09,00,14.10
2019,05,28,09,01,14.10
2019,05,28,09,02,14.10
2019,05,28,09,03,14.20
2019,05,28,09,04,14.20
2019,05,28,09,05,14.20
2019,05,28,09,06,14.20
2019,05,28,09,07,14.30
2019,05,28,09,08,14.30
2019,05,28,09,09,14.30
2019,05,28,09,10,14.40
2019,05,28,09,11,14.40
2019,05,28,09,12,14.40
2019,05,28,09,13,14.50
2019,05,28,09,14,14.50
2019,05,28,09,15,14.50
2019,05,28,09,16,14.60
2019,05,28,09,17,14.60
2019,05,28,09,18,14.60
2019,05,28,09,19,14.60
2019,05,28,09,20,14.70
2019,05,28,09,21,14.70
2019,05,28,09,22,14.70
2019,05,28,09,23,14.70
2019,05,28,09,24,14.80
2019,05,28,09,25,14.80
2019,05,28,09,26,14.80
2019,05,28,09,27,14.90
2019,05,28,09,28,15.00
2019,05,28,09,29,15.00
2019,05,28,09,30,15.00
2019,05,28,09,31,15.00
2019,05,28,09,32,15.00
2019,05,28,09,33,15.00
2019,05,28,09,34,15.00
2019,05,28,09,35,15.10
2019,05,28,09,36,15.20
2019,05,28,09,37,15.30
2019,05,28,09,38,15.30
2019,05,28,09,39,15.30
2019,05,28,09,40,15.40
2019,05,28,09,41,15.40
2019,05,28,09,42,15.40
2019,05,28,09,43,15.50
2019,05,28,09,44,15.50
2019,05,28,09,45,15.60
2019,05,28,09,46,15.60
2019,05,28,09,47,15.70
2019,05,28,09,48,15.70
2019,05,28,09,49,15.80
2019,05,28,09,50,15.80
2019,05,28,09,51,15.80
2019,05,28,09,52,15.90
2019,05,28,09,53,15.90
2019,05,28,09,54,15.90
2019,05,28,09,55,15.90
2019,05,28,09,56,16.00
2019,05,28,09,57,16.00
2019,05,28,09,58,16.00
2019,05,28,09,59,16.10
2019,05,28,10,00,16.10
2019,05,28,10,01,16.10
2019,05,28,10,02,16.10
2019,05,28,10,03,16.10
2019,05,28,10,04,16.20
2019,05,28,10,05,16.20
2019,05,28,10,06,16.20
2019,05,28,10,07,16.20
2019,05,28,10,08,16.20
2019,05,28,10,09,16.20
2019,05,28,10,10,16.20
2019,05,28,10,11,16.30
2019,05,28,10,12,16.30
2019,05,28,10,13,16.30
2019,05,28,10,14,16.30
2019,05,28,10,15,16.30
2019,05,28,10,16,16.30
2019,05,28,10,17,16.30
2019,05,28,10,18,16.30
2019,05,28,10,19,16.30
2019,05,28,10,20,16.30
2019,05,28,10,21,16.40
2019,05,28,10,22,16.40
2019,05,28,10,23,16.40
2019,05,28,10,24,16.40
2019,05,28,10,25,16.40
2019,05,28,10,26,16.50
2019,05,28,10,27,16.50
2019,05,28,10,28,16.50
2019,05,28,10,29,16.50
2019,05,28,10,30,16.60
2019,05,28,10,31,16.60
2019,05,28,10,32,16.60
2019,05,28,10,33,16.60
2019,05,28,10,34,16.60
2019,05,28,10,35,16.60
2019,05,28,10,36,16.70
2019,05,28,10,37,16.70
2019,05,28,10,38,16.70
2019,05,28,10,39,16.80
2019,05,28,10,40,16.80
2019,05,28,10,41,16.80
2019,05,28,10,42,16.80
2019,05,28,10,43,16.90
2019,05,28,10,44,16.90
2019,05,28,10,45,16.90
2019,05,28,10,46,16.90
2019,05,28,10,47,16.90
2019,05,28,10,48,16.90
2019,05,28,10,49,16.90
2019,05,28,10,50,17.00
2019,05,28,10,51,17.00
2019,05,28,10,52,17.00
2019,05,28,10,53,17.10
2019,05,28,10,54,17.10
2019,05,28,10,55,17.10
2019,05,28,10,56,17.10
2019,05,28,10,57,17.10
2019,05,28,10,58,17.20
2019,05,28,10,59,17.20
2019,05,28,11,00,17.20
2019,05,28,11,01,17.20
2019,05,28,11,02,17.20
2019,05,28,11,03,17.20
2019,05,28,11,04,17.30
2019,05,28,11,05,17.30
2019,05,28,11,06,17.30
2019,05,28,11,07,17.30
2019,05,28,11,08,17.30
2019,05,28,11,09,17.30
2019,05,28,11,10,17.30
2019,05,28,11,11,17.30
2019,05,28,11,12,17.30
2019,05,28,11,13,17.30
2019,05,28,11,14,17.40
2019,05,28,11,15,17.40
2019,05,28,11,16,17.40
2019,05,28,11,17,17.40
2019,05,28,11,18,17.40
2019,05,28,11,19,17.40
2019,05,28,11,20,17.40
2019,05,28,11,21,17.40
2019,05,28,11,22,17.50
2019,05,28,11,23,17.50
2019,05,28,11,24,17.60
2019,05,28,11,25,17.60
2019,05,28,11,26,17.60
2019,05,28,11,27,17.60
2019,05,28,11,28,17.70
2019,05,28,11,29,17.70
2019,05,28,11,30,17.70
2019,05,28,11,31,17.70
2019,05,28,11,32,17.80
2019,05,28,11,33,17.80
2019,05,28,11,34,17.80
2019,05,28,11,35,17.90
2019,05,28,11,36,17.90
2019,05,28,11,37,17.90
2019,05,28,11,38,18.00
2019,05,28,11,39,18.00
2019,05,28,11,40,18.10
2019,05,28,11,41,18.10
2019,05,28,11,42,18.20
2019,05,28,11,43,18.20
2019,05,28,11,44,18.20
2019,05,28,11,45,18.30
2019,05,28,11,46,18.30
2019,05,28,11,47,18.40
2019,05,28,11,48,18.40
2019,05,28,11,49,18.50
2019,05,28,11,50,18.50
2019,05,28,11,51,18.60
2019,05,28,11,52,18.60
2019,05,28,11,53,18.70
2019,05,28,11,54,18.70
2019,05,28,11,55,18.70
2019,05,28,11,56,18.70
2019,05,28,11,57,18.70
2019,05,28,11,58,18.70
2019,05,28,11,59,18.70
2019,05,28,12,00,18.80
2019,05,28,12,01,18.80
2019,05,28,12,02,18.90
2019,05,28,12,03,18.90
2019,05,28,12,04,19.00
2019,05,28,12,05,19.00
2019,05,28,12,06,19.00
2019,05,28,12,07,19.10
2019,05,28,12,08,19.10
2019,05,28,12,09,19.10
2019,05,28,12,10,19.20
2019,05,28,12,11,19.20
2019,05,28,12,12,19.30
2019,05,28,12,13,19.30
2019,05,28,12,14,19.40
2019,05,28,12,15,19.40
2019,05,28,12,16,19.50
2019,05,28,12,17,19.50
2019,05,28,12,18,19.60
2019,05,28,12,19,19.70
2019,05,28,12,20,19.70
2019,05,28,12,21,19.70
2019,05,28,12,22,19.70
2019,05,28,12,23,19.80
2019,05,28,12,24,19.80
2019,05,28,12,25,19.80
2019,05,28,12,26,19.80
2019,05,28,12,27,19.80
2019,05,28,12,28,19.90
2019,05,28,12,29,20.00
2019,05,28,12,30,20.00
2019,05,28,12,31,20.10
2019,05,28,12,32,20.10
2019,05,28,12,33,20.10
2019,05,28,12,34,20.10
2019,05,28,12,35,20.00
2019,05,28,12,36,20.00
2019,05,28,12,37,19.90
2019,05,28,12,38,19.80
2019,05,28,12,39,19.80
2019,05,28,12,40,19.80
2019,05,28,12,41,19.80
2019,05,28,12,42,19.80
2019,05,28,12,43,19.80
2019,05,28,12,44,19.80
2019,05,28,12,45,19.80
2019,05,28,12,46,19.80
2019,05,28,12,47,19.80
2019,05,28,12,48,19.70
2019,05,28,12,49,19.70
2019,05,28,12,50,19.70
2019,05,28,12,51,19.70
2019,05,28,12,52,19.70
2019,05,28,12,53,19.80
2019,05,28,12,54,19.70
2019,05,28,12,55,19.70
2019,05,28,12,56,19.60
2019,05,28,12,57,19.60
2019,05,28,12,58,19.60
2019,05,28,12,59,19.60
2019,05,28,13,00,19.60
2019,05,28,13,01,19.60
2019,05,28,13,02,19.60
2019,05,28,13,03,19.60
2019,05,28,13,04,19.60
2019,05,28,13,05,19.60
2019,05,28,13,06,19.60
2019,05,28,13,07,19.60
2019,05,28,13,08,19.70
2019,05,28,13,09,19.70
2019,05,28,13,10,19.70
2019,05,28,13,11,19.70
2019,05,28,13,12,19.70
2019,05,28,13,13,19.70
2019,05,28,13,14,19.70
2019,05,28,13,15,19.80
2019,05,28,13,16,19.80
2019,05,28,13,17,19.80
2019,05,28,13,18,19.80
2019,05,28,13,19,19.80
2019,05,28,13,20,19.80
2019,05,28,13,21,19.80
2019,05,28,13,22,19.80
2019,05,28,13,23,19.80
2019,05,28,13,24,19.90
2019,05,28,13,25,19.90
2019,05,28,13,26,19.90
2019,05,28,13,27,19.90
2019,05,28,13,28,19.90
2019,05,28,13,29,19.90
2019,05,28,13,30,19.90
2019,05,28,13,31,19.90
2019,05,28,13,32,19.80
2019,05,28,13,33,19.80
2019,05,28,13,34,19.90
2019,05,28,13,35,19.90
2019,05,28,13,36,19.90
2019,05,28,13,37,20.00
2019,05,28,13,38,20.10
2019,05,28,13,39,20.10
2019,05,28,13,40,20.10
2019,05,28,13,41,20.20
2019,05,28,13,42,20.20
2019,05,28,13,43,20.20
2019,05,28,13,44,20.20
2019,05,28,13,45,20.20
2019,05,28,13,46,20.20
2019,05,28,13,47,20.10
2019,05,28,13,48,20.10
2019,05,28,13,49,20.10
2019,05,28,13,50,20.10
2019,05,28,13,51,20.10
2019,05,28,13,52,20.10
2019,05,28,13,53,20.20
2019,05,28,13,54,20.20
2019,05,28,13,55,20.30
2019,05,28,13,56,20.40
2019,05,28,13,57,20.40
2019,05,28,13,58,20.50
2019,05,28,13,59,20.50
2019,05,28,14,00,20.50
2019,05,28,14,01,20.60
2019,05,28,14,02,20.60
2019,05,28,14,03,20.70
2019,05,28,14,04,20.70
2019,05,28,14,05,20.80
2019,05,28,14,06,20.80
2019,05,28,14,07,20.80
2019,05,28,14,08,20.80
2019,05,28,14,09,20.80
2019,05,28,14,10,20.80
2019,05,28,14,11,20.80
2019,05,28,14,12,20.80
2019,05,28,14,13,20.80
2019,05,28,14,14,20.90
2019,05,28,14,15,20.90
2019,05,28,14,16,20.90
2019,05,28,14,17,21.00
2019,05,28,14,18,21.00
2019,05,28,14,19,21.10
2019,05,28,14,20,21.10
2019,05,28,14,21,21.20
2019,05,28,14,22,21.20
2019,05,28,14,23,21.20
2019,05,28,14,24,21.30
2019,05,28,14,25,21.30
2019,05,28,14,26,21.30
2019,05,28,14,27,21.30
2019,05,28,14,28,21.30
2019,05,28,14,29,21.20
2019,05,28,14,30,21.20
2019,05,28,14,31,21.20
2019,05,28,14,32,21.20
2019,05,28,14,33,21.20
2019,05,28,14,34,21.20
2019,05,28,14,35,21.20
2019,05,28,14,36,21.20
2019,05,28,14,37,21.20
2019,05,28,14,38,21.20
2019,05,28,14,39,21.30
2019,05,28,14,40,21.30
2019,05,28,14,41,21.40
2019,05,28,14,42,21.40
2019,05,28,14,43,21.40
2019,05,28,14,44,21.40
2019,05,28,14,45,21.50
2019,05,28,14,46,21.50
2019,05,28,14,47,21.60
2019,05,28,14,48,21.60
2019,05,28,14,49,21.70
2019,05,28,14,50,21.60
2019,05,28,14,51,21.60
2019,05,28,14,52,21.60
2019,05,28,14,53,21.60
2019,05,28,14,54,21.70
2019,05,28,14,55,21.80
2019,05,28,14,56,21.80
2019,05,28,14,57,21.80
2019,05,28,14,58,21.90
2019,05,28,14,59,21.90
2019,05,28,15,00,22.00
2019,05,28,15,01,22.00
2019,05,28,15,02,22.10
2019,05,28,15,03,22.20
2019,05,28,15,04,22.20
2019,05,28,15,05,22.20
2019,05,28,15,06,22.30
2019,05,28,15,07,22.30
2019,05,28,15,08,22.30
2019,05,28,15,09,22.40
2019,05,28,15,10,22.40
2019,05,28,15,11,22.50
2019,05,28,15,12,22.50
2019,05,28,15,13,22.50
2019,05,28,15,14,22.60
2019,05,28,15,15,22.60
2019,05,28,15,16,22.60
2019,05,28,15,17,22.60
2019,05,28,15,18,22.60
2019,05,28,15,19,22.70
2019,05,28,15,20,22.70
2019,05,28,15,21,22.70
2019,05,28,15,22,22.70
2019,05,28,15,23,22.80
2019,05,28,15,24,22.80
2019,05,28,15,25,22.80
2019,05,28,15,26,22.80
2019,05,28,15,27,22.80
2019,05,28,15,28,22.80
2019,05,28,15,29,22.80
2019,05,28,15,30,22.80
2019,05,28,15,31,22.80
2019,05,28,15,32,22.80
2019,05,28,15,33,22.70
2019,05,28,15,34,22.70
2019,05,28,15,35,22.60
2019,05,28,15,36,22.50
2019,05,28,15,37,22.40
2019,05,28,15,38,22.30
2019,05,28,15,39,22.30
2019,05,28,15,40,22.40
2019,05,28,15,41,22.40
2019,05,28,15,42,22.40
2019,05,28,15,43,22.40
2019,05,28,15,44,22.40
2019,05,28,15,45,22.50
2019,05,28,15,46,22.50
2019,05,28,15,47,22.50
2019,05,28,15,48,22.50
2019,05,28,15,49,22.50
2019,05,28,15,50,22.60
2019,05,28,15,51,22.50
2019,05,28,15,52,22.50
2019,05,28,15,53,22.50
2019,05,28,15,54,22.50
2019,05,28,15,55,22.60
2019,05,28,15,56,22.60
2019,05,28,15,57,22.60
2019,05,28,15,58,22.60
2019,05,28,15,59,22.70
2019,05,28,16,00,22.70
2019,05,28,16,01,22.70
2019,05,28,16,02,22.70
2019,05,28,16,03,22.80
2019,05,28,16,04,22.90
2019,05,28,16,05,22.90
2019,05,28,16,06,22.90
2019,05,28,16,07,22.90
2019,05,28,16,08,22.90
2019,05,28,16,09,23.00
2019,05,28,16,10,22.90
2019,05,28,16,11,22.90
2019,05,28,16,12,22.90
2019,05,28,16,13,22.90
2019,05,28,16,14,22.80
2019,05,28,16,15,22.70
2019,05,28,16,16,22.70
2019,05,28,16,17,22.60
2019,05,28,16,18,22.50
2019,05,28,16,19,22.50
2019,05,28,16,20,22.40
2019,05,28,16,21,22.30
2019,05,28,16,22,22.20
2019,05,28,16,23,22.20
2019,05,28,16,24,22.20
2019,05,28,16,25,22.10
2019,05,28,16,26,22.00
2019,05,28,16,27,21.90
2019,05,28,16,28,21.80
2019,05,28,16,29,21.70
2019,05,28,16,30,21.70
2019,05,28,16,31,21.60
2019,05,28,16,32,21.60
2019,05,28,16,33,21.60
2019,05,28,16,34,21.50
2019,05,28,16,35,21.50
2019,05,28,16,36,21.50
2019,05,28,16,37,21.50
2019,05,28,16,38,21.50
2019,05,28,16,39,21.50
2019,05,28,16,40,21.40
2019,05,28,16,41,21.40
2019,05,28,16,42,21.40
2019,05,28,16,43,21.40
2019,05,28,16,44,21.30
2019,05,28,16,45,21.20
2019,05,28,16,46,21.10
2019,05,28,16,47,21.00
2019,05,28,16,48,20.90
2019,05,28,16,49,20.80
2019,05,28,16,50,20.80
2019,05,28,16,51,20.80
2019,05,28,16,52,20.80
2019,05,28,16,53,20.70
2019,05,28,16,54,20.70
2019,05,28,16,55,20.70
2019,05,28,16,56,20.60
2019,05,28,16,57,20.60
2019,05,28,16,58,20.50
2019,05,28,16,59,20.50
2019,05,28,17,00,20.40
2019,05,28,17,01,20.40
2019,05,28,17,02,20.40
2019,05,28,17,03,20.40
2019,05,28,17,04,20.40
2019,05,28,17,05,20.40
2019,05,28,17,06,20.40
2019,05,28,17,07,20.40
2019,05,28,17,08,20.40
2019,05,28,17,09,20.40
2019,05,28,17,10,20.40
2019,05,28,17,11,20.30
2019,05,28,17,12,20.30
2019,05,28,17,13,20.40
2019,05,28,17,14,20.40
2019,05,28,17,15,20.40
2019,05,28,17,16,20.40
2019,05,28,17,17,20.40
2019,05,28,17,18,20.40
2019,05,28,17,19,20.40